APSTAR 6C (43450 NORAD) Tracking and Keplerian Element Data

This shows tracking and keplerian element data for the satellite.

Feedback or suggestion? Click here.




ElementValue
Catalog43450
NameAPSTAR 6C
Epoch Orbit1254
Epoch Day268.92888654
Epoch Year2021
RAAN167.776
Inclination0.0071
Eccentricity0.000264
Argument of Perigee43.8688
Mean Anonmoly261.7218
Mean Motion1.00270825
Decay Rate-3.21E-06
L11 43450U 18041A 21268.92888654 -.00000321 00000-0 00000-0 0 9996
L22 43450 0.0071 167.7760 0002640 43.8688 261.7218 1.00270825 12543

Live tracking and technical data element details for APSTAR 6C (NORAD 43450). APSTAR 6C can be tracked NOW for your location showing map with azimuth and elevation plus other details from your city location.

Track the satellite on the map from your city or location and see movement details for azimuth, elevation, latitude, longitude, range, height, and movement on the map or in text.







IsCatalogInMostPopularTable: catalog: 43450, numindb: 523
Update: records affected: 1



GetName: 43450 APSTAR 6C

Hit Count: updated at: Mon, 27 Sep 2021 01:48:40 GMT